Flag for Luxembourg Weather past 2 weeks in Differdange, Luxembourg

Now
52 °F

Drizzle. Broken clouds.


Feels Like: 47 °F
Forecast: 39 / 49 °F
Wind: 16 mph from West

Location: Luxembourg Airport

Current Time: Dec 18, 2014 at 3:04:37 PM

Latest Report: Dec 18, 2014 at 2:20 PM


Visibility: 3 mi

Pressure: 29.95 "Hg

Humidity: 100%

Dew point: 52 °F

Location of DifferdangeLocation

Historic Weather in Differdange — Graph

°F

Differdange temperature yesterday

Maximum temperature yesterday: 46 °F (at 8:20 PM)
Minimum temperature yesterday: 36 °F (at 12:20 AM)
Average temperature yesterday: 41 °F

Past Weeks' High & Low Weather Summary

 TemperatureHumidityPressure
High52 °F (Dec 18, 10:50 AM)100% (Dec 4, 8:20 AM)30.36 "Hg (Dec 4, 8:20 AM)
Low28 °F (Dec 15, 7:20 AM)75% (Dec 8, 3:20 PM)29.59 "Hg (Dec 12, 2:20 PM)
Average38 °F95%29.99 "Hg
* Reported Dec 3 1:20 PM — Dec 18 1:50 PM, Differdange, Weather by CustomWeather, © 2014

Note: Actual official high and low records may vary slightly from our data, if they occured in-between our weather recording intervals... More about our weather records

Advertising

Differdange weather history for previous 24 hours

 ConditionsComfort  
Time TempWeatherWind HumidityBarometerVisibility
1:50 PM
Dec 18
52 °FDrizzle. Broken clouds.15 mph100%29.95 "Hg2 mi
1:20 PM52 °FDrizzle. Broken clouds.14 mph100%29.95 "Hg2 mi
12:50 PM52 °FDrizzle. Fog.15 mph94%29.95 "Hg2 mi
12:20 PM52 °FDrizzle. Broken clouds.17 mph94%29.95 "Hg4 mi
11:50 AM52 °FDrizzle. Broken clouds.15 mph94%29.95 "Hg5 mi
11:20 AM52 °FDrizzle. Broken clouds.14 mph94%29.95 "Hg3 mi
10:50 AM52 °FDrizzle. Broken clouds.13 mph94%29.95 "Hg2 mi
10:20 AM50 °FBroken clouds.14 mph100%29.95 "Hg4 mi
9:50 AM50 °FDrizzle. Fog.10 mph100%29.95 "Hg1 mi
9:20 AM50 °FPartly sunny.14 mph100%29.92 "Hg5 mi
8:50 AM50 °FPartly sunny.12 mph100%29.92 "Hg3 mi
8:20 AM50 °FDrizzle. Fog.9 mph94%29.92 "Hg1 mi
7:50 AM48 °FDrizzle. Fog.10 mph100%29.92 "Hg1 mi
7:20 AM48 °FDrizzle. Fog.9 mph100%29.92 "Hg1 mi
6:50 AM48 °FDrizzle. Fog.9 mph100%29.89 "Hg1 mi
6:20 AM48 °FDrizzle. Fog.9 mph100%29.89 "Hg1 mi
5:50 AM48 °FDrizzle. Fog.10 mph100%29.89 "Hg1 mi
5:20 AM48 °FDrizzle. Fog.10 mph100%29.89 "Hg1 mi
4:20 AM48 °FDrizzle. Fog.9 mph100%29.89 "Hg1 mi
3:50 AM48 °FFog.8 mph100%29.89 "Hg1 mi
3:20 AM48 °FCool.8 mph100%29.89 "HgN/A
2:50 AM48 °FCool.9 mph100%29.92 "HgN/A
2:20 AM48 °FCool.8 mph100%29.92 "HgN/A
1:50 AM48 °FFog.8 mph100%29.92 "Hg1 mi
1:20 AM48 °FDrizzle. Fog.9 mph94%29.92 "Hg1 mi
12:50 AM46 °FDrizzle. Fog.8 mph100%29.92 "Hg1 mi
12:20 AM46 °FDrizzle. Fog.7 mph100%29.89 "Hg1 mi
11:50 PM
Dec 17
46 °FDrizzle. Fog.8 mph100%29.89 "Hg1 mi
11:20 PM46 °FDrizzle. Fog.7 mph100%29.89 "Hg1 mi
10:50 PM46 °FDrizzle. Fog.6 mph100%29.89 "Hg0 mi
10:20 PM46 °FDrizzle. Fog.3 mph100%29.89 "Hg1 mi
9:50 PM46 °FDrizzle. Fog.5 mph100%29.86 "Hg0 mi
9:20 PM46 °FFog.6 mph100%29.86 "Hg0 mi
8:50 PM46 °FDrizzle. Fog.6 mph100%29.86 "Hg0 mi
8:20 PM46 °FFog.7 mph100%29.83 "Hg0 mi
7:50 PM45 °FFog.8 mph100%29.83 "Hg0 mi
7:20 PM45 °FQuite cool.6 mph100%29.80 "HgN/A
6:50 PM45 °FFog.7 mph100%29.80 "Hg1 mi
6:20 PM45 °FQuite cool.7 mph100%29.80 "HgN/A
5:50 PM45 °FFog.8 mph93%29.77 "Hg1 mi
5:20 PM45 °FFog.6 mph93%29.77 "Hg1 mi
4:50 PM43 °FFog.9 mph100%29.74 "Hg1 mi
4:20 PM43 °FDrizzle. Fog.12 mph100%29.74 "Hg1 mi
3:50 PM43 °FDrizzle. Fog.12 mph100%29.71 "Hg1 mi
3:20 PM43 °FDrizzle. Fog.9 mph93%29.71 "Hg2 mi
Weather by CustomWeather, © 2014

See weather overviewHow to use our weather pages